Regional Weather Roundup
Issued by NWS

Home | Current Version | Previous Version | Graphics & Text | Print | Product List | Glossary Off
Versions: 1 2 3 4 5 6 7 8 9 10 11 12 13 14 15 16 17 18 19 20 21 22 23 24 25 26 27 28 29 30 31 32 33 34 35 36 37 38 39 40 41 42 43 44 45 46 47 48 49 50

000
ASUS43 KIND 050309
RWRIN

WEATHER ROUNDUP FOR INDIANA
NATIONAL WEATHER SERVICE INDIANAPOLIS IN
1100 PM EDT FRI SEP 04 2015

NOTE: "FAIR" INDICATES FEW OR NO CLOUDS BELOW 12,000 FEET WITH NO
SIGNIFICANT WEATHER AND/OR OBSTRUCTIONS TO VISIBILITY.

* - STATION DOES NOT REPORT WEATHER SUCH AS PRECIPITATION OR FOG.

+ - STATION NOT QUALITY CONTROLLED BY THE NATIONAL WEATHER SERVICE.
    USE DATA WITH CAUTION...ESPECIALLY DEWPOINT AND RELATIVE
    HUMIDITY OBSERVATIONS.

INZ001>003-010>013-019-020-050400-
NORTHWEST INDIANA

CITY           SKY/WX    TMP DP  RH WIND       PRES   REMARKS
GARY /AIRPORT/ CLEAR     72  66  83 CALM      30.05S
KNOX *+        PTCLDY    70  68  94 SE3       30.06R
LA PORTE +     PTCLDY   N/A N/A N/A NE5       30.07R
MICHIGAN CITY+ CLEAR     68  68 100 CALM      30.06S FOG
MONTICELLO +   MOCLDY    73  67  82 S7        30.06S
RENSSELAER +   PTCLDY    68  68 100 CALM      30.07R
VALPARAISO     CLEAR     72  69  90 S6        30.06R

$$

LMZ046-743>745-050400-
SOUTHERN LAKE MICHIGAN

STATION/POSITION TIME  TEMP    WIND        PRES    WAVE
                       AIR SEA DIR/SP/G            HT
                 (UTC) (F)     (DEG/KT/KT) (MB)    (FT)
BURNS HARBOR     0200   72      70/ 11/ 13 1017.9R
MICHIGAN CITY    0200   71      90/  3/  4   N/A
5NW MICH CITY    0300   73 74   50/  6/  8   N/A     1

$$

INZ004-005-014>016-021>024-050400-
NORTH CENTRAL INDIANA

CITY           SKY/WX    TMP DP  RH WIND       PRES   REMARKS
GOSHEN         MOCLDY    70  65  84 SE8       30.07R
PERU/GRISSOM   MOCLDY    68  64  88 NE3       30.07R
ROCHESTER +    MOCLDY    72  68  88 CALM      30.08S
SOUTH BEND     PTCLDY    71  68  90 NE3       30.07R
WARSAW +       PTCLDY    68  66  94 CALM      30.09R

$$

INZ006>009-017-018-025>027-050400-
NORTHEAST INDIANA

CITY           SKY/WX    TMP DP  RH WIND       PRES   REMARKS
ANGOLA *+      CLEAR     70  63  78 CALM      30.09R
AUBURN +       MOCLDY    66  63  88 CALM      30.09R
FORT WAYNE     MOCLDY    67  64  90 SW6       30.09R
HUNTINGTON +   MOCLDY    65  62  88 CALM      30.09R

$$

INZ028-029-035-036-043>045-051>053-050400-
WEST CENTRAL INDIANA

CITY           SKY/WX    TMP DP  RH WIND       PRES   REMARKS
CRAWFORDSVL +  CLOUDY    66  63  90 CALM      30.08F
GREENCASTLE +  LGT RAIN  68  63  83 SE9       30.08S
LAFAYETTE      CLOUDY    71  64  78 S5        30.07R
TERRE HAUTE    CLOUDY    75  61  61 NW7       30.09R

$$

INZ030>032-037>040-046>048-054>057-064-065-050400-
CENTRAL INDIANA

CITY           SKY/WX    TMP DP  RH WIND       PRES   REMARKS
FRANKFORT +    CLOUDY   N/A N/A N/A SW9       30.11R
GREENWOOD *+   CLOUDY    72  63  73 CALM      30.09F
INDIANAPOLIS   CLOUDY    72  65  78 S5        30.08S
-EAGLE CREEK   CLOUDY    72  68  87 S5        30.08R
KOKOMO *+      MOCLDY    68  63  83 CALM      30.09R
MARION +       MOCLDY    66  58  75 CALM      30.10R
MT COMFORT *+  CLOUDY    68 N/A N/A SE3       30.10R
SHELBYVILLE    CLOUDY    72  65  78 CALM      30.08F
ZIONSVILLE +   CLOUDY    71  64  77 S6        30.10R

$$

INZ033-034-041-042-049-050-058-059-050400-
EAST CENTRAL INDIANA

CITY           SKY/WX    TMP DP  RH WIND       PRES   REMARKS
MUNCIE         CLOUDY    68  63  84 SE6       30.09R

$$

INZ060-061-067>069-081>083-085>088-050400-
SOUTHWEST INDIANA

CITY           SKY/WX    TMP DP  RH WIND       PRES   REMARKS
EVANSVILLE     CLEAR     77  69  76 N3        30.06R
HUNTINGBURG *+ PTCLDY    75  66  73 CALM      30.07R
WASHINGTON +   CLEAR     73  68  86 CALM      30.05S

$$

INZ062-063-066-070>080-084-089>092-050400-
SOUTH CENTRAL AND SOUTHEAST INDIANA

CITY           SKY/WX    TMP DP  RH WIND       PRES   REMARKS
BLOOMINGTON    MOCLDY    76  65  68 SE5       30.09S
MADISON *+     CLOUDY    72  63  73 E5        30.11F
NORTH VERNON + CLOUDY    72  72 100 E3        30.10S
SEYMOUR +      MOCLDY    73  64  73 SE5       30.08S

$$




USA.gov is the U.S. government's official web portal to all federal, state and local government web resources and services.